Helicity
168 -64 -201 30 83 74 65 84 77 150 242 305 248 191 117 98 51 21 10 38 124 205 171 159 139 109 76 57 78 74 91 56 77 48 43 37 35 24 11 6 16 36 45 63
235 -158 -67 54 29 6 -2 -43 51 106 185 276 235 207 94 153 60 57 63 79 143 184 181 172 172 179 147 89 73 46 48 55 71 75 70 74 76 68 84 83 76 67 63 58
101 79 27 25 -24 -24 -21 -22 15 192 229 212 281 143 147 82 69 50 98 158 204 274 192 160 147 151 104 63 39 16 27 58 50 60 67 63 67 75 80 61 101 85 62 42
186 68 30 8 -18 25 28 77 8 149 266 217 246 165 80 141 130 122 201 214 200 267 249 187 134 88 51 26 17 38 36 35 16 47 57 54 53 76 106 136 134 101 68 42
180 17 8 34 14 58 79 100 82 127 149 310 177 200 120 206 129 205 259 242 253 334 354 264 189 157 54 62 42 44 24 15 -1 32 42 67 49 55 100 156 161 102 60 58
117 90 16 50 69 48 112 60 100 107 217 211 155 164 187 234 163 169 197 256 291 282 406 337 232 189 135 78 69 52 41 17 26 57 81 129 97 81 108 117 109 95 92 88
123 91 69 56 75 43 68 70 87 38 113 128 119 151 56 134 135 156 212 252 265 348 447 453 302 264 241 175 140 99 85 68 93 129 111 81 59 41 47 37 66 107 139 107
119 94 10 14 29 48 38 84 96 46 8 28 62 62 20 220 154 115 126 265 208 363 495 561 426 398 375 279 215 189 167 139 156 153 108 74 80 51 37 16 18 55 87 120
137 120 50 9 27 26 33 104 80 123 113 30 12 66 39 155 115 117 177 180 239 348 415 529 501 458 426 361 292 294 277 244 206 178 160 134 119 98 68 57 66 60 73 123
98 131 27 10 19 62 139 121 177 129 84 65 42 45 100 168 106 73 74 160 259 279 381 433 460 453 446 457 413 332 349 341 275 250 240 191 169 139 105 90 71 74 55 70
79 94 33 -37 -41 49 219 207 177 142 151 74 34 -8 58 73 95 153 53 36 252 344 383 381 388 422 453 424 433 411 392 377 343 345 312 240 214 138 110 83 73 58 50 57
107 80 34 34 55 55 182 90 161 205 206 166 80 46 54 51 70 113 2 7 119 273 324 346 324 419 507 502 541 512 455 404 387 392 341 271 246 149 111 105 89 76 68 77
77 120 69 54 36 47 262 207 220 222 210 164 145 89 66 30 78 57 39 -17 -11 117 212 249 309 403 553 552 570 564 500 455 431 414 372 266 253 202 124 106 97 88 73 46
197 190 46 54 45 61 135 211 230 258 245 139 75 86 110 86 62 53 75 86 56 49 148 243 318 397 500 572 579 611 545 536 511 408 381 298 287 244 158 119 108 88 60 42
363 164 131 55 62 61 115 209 221 242 159 199 114 117 99 123 231 174 95 113 166 86 156 188 244 328 397 407 479 545 493 595 540 434 385 320 246 245 163 106 97 68 43 49
309 120 159 69 21 63 149 178 205 168 227 212 174 135 106 131 233 228 201 164 161 102 168 119 176 311 392 435 460 604 613 544 627 479 379 277 226 195 140 83 71 62 41 55
174 203 230 115 109 152 187 150 103 98 27 24 142 96 193 263 311 318 271 156 161 246 191 100 214 269 278 343 451 550 563 668 601 536 426 262 199 175 109 82 80 58 57 98
104 205 205 219 228 156 145 180 9 116 156 134 75 165 185 302 316 319 248 270 192 149 101 52 72 160 279 326 381 467 646 719 604 469 290 234 205 110 109 100 76 51 104 130
123 223 193 233 235 177 196 226 144 163 198 158 76 183 267 255 410 373 195 149 119 92 88 51 46 75 153 269 420 541 647 696 546 441 202 250 155 146 143 107 98 99 151 171
88 131 259 291 293 257 313 315 192 94 177 186 198 297 378 404 479 335 185 113 126 108 90 48 54 88 180 267 437 534 596 568 525 415 234 201 127 116 151 153 147 139 194 234
65 163 135 357 397 303 347 321 146 200 154 85 94 217 223 229 202 235 186 170 102 75 56 42 131 138 219 336 415 442 504 442 466 275 163 80 112 158 168 188 185 195 225 329
58 89 138 201 221 330 428 265 306 203 245 285 282 263 233 286 397 352 255 139 71 97 83 145 201 184 287 365 425 428 384 358 360 266 142 73 33 -100 -121 220 215 237 329 331
212 98 -10 137 115 316 408 268 350 373 399 427 411 345 240 207 195 165 57 57 76 104 67 84 221 438 458 469 506 534 391 343 389 387 286 267 116 94 117 72 227 321 297 220
91 95 150 193 162 297 249 334 295 247 284 390 410 434 450 314 152 138 155 74 22 36 52 146 454 562 638 535 515 436 300 378 392 392 333 225 371 242 -11 162 248 260 187 169
111 109 207 182 232 250 273 283 255 314 329 228 166 116 181 222 252 251 143 37 18 2 102 230 487 634 624 532 499 386 334 258 141 57 31 56 11 52 141 244 208 197 195 149
253 147 202 190 339 402 414 343 224 223 201 124 102 130 129 116 16 6 -7 31 27 4 141 386 493 523 461 312 281 373 447 332 268 238 108 53 111 188 197 236 247 325 252 206
Wind_Speed
48 51 65 71 61 63 56 18 38 34 2 4 18 19 34 29 32 38 35 37 40 42 44 41 43 44 45 44 42 42 38 37 35 31 28 25 23 22 21 21 19 16 16 18
63 62 80 69 60 63 61 55 37 11 11 17 10 18 29 23 35 35 33 31 33 33 38 42 39 39 43 44 42 42 41 38 37 33 29 26 22 19 19 18 17 20 19 20
47 65 73 69 73 67 64 55 42 33 7 26 1 5 8 15 16 25 26 29 29 31 34 36 38 37 42 42 43 43 39 36 35 32 29 28 27 26 22 18 19 20 21 20
60 69 76 78 79 60 68 62 51 13 25 19 20 26 31 25 26 22 15 23 28 23 30 32 36 36 42 43 41 38 34 33 31 29 27 26 26 27 29 27 24 23 23 22
55 49 64 75 82 50 70 57 13 11 32 22 25 14 29 25 39 26 21 33 33 33 30 33 39 36 39 35 36 32 30 28 25 24 23 23 26 31 31 30 28 27 25 23
68 67 60 84 84 70 75 59 35 7 8 24 27 34 13 35 49 45 37 40 35 27 36 34 37 31 31 28 26 22 23 20 14 14 17 19 22 27 31 30 29 29 34 33
61 80 78 64 76 77 61 46 42 34 17 25 23 18 22 37 53 41 45 40 38 38 32 33 35 30 25 25 24 21 20 16 11 11 12 15 21 25 25 26 29 32 34 32
71 77 69 58 53 66 62 38 39 40 52 60 24 24 30 18 35 43 49 42 49 40 40 34 35 30 30 30 29 26 24 22 19 14 10 11 16 21 25 27 30 30 31 30
59 73 73 66 67 49 60 55 36 42 41 42 45 59 68 45 17 30 37 36 42 39 42 45 46 40 36 33 32 32 30 28 27 21 12 9 11 16 20 20 23 29 30 30
68 74 70 78 59 66 49 39 45 44 38 44 46 51 44 15 15 26 32 34 35 38 40 41 45 46 45 41 36 33 32 32 30 23 15 10 3 10 15 18 21 26 28 28
74 64 80 56 59 63 45 46 42 38 39 45 56 59 37 13 19 30 35 36 25 35 41 39 44 47 43 41 37 33 30 30 28 23 18 11 5 1 8 13 19 24 26 26
73 59 84 87 70 57 43 49 44 53 48 49 50 56 34 6 15 23 29 25 25 31 37 37 44 44 42 43 37 35 31 30 27 22 19 14 8 5 2 8 13 19 20 26
68 76 77 73 67 53 49 42 43 39 39 42 40 44 26 15 6 12 19 16 19 18 31 35 37 36 34 40 40 37 33 32 25 22 19 15 12 10 6 5 9 14 19 23
52 69 76 77 62 48 54 41 39 39 44 41 46 38 17 12 12 10 21 19 20 14 23 29 29 32 30 34 40 39 35 32 26 24 24 21 14 11 7 6 7 11 15 19
57 71 67 68 72 64 57 50 43 45 42 46 42 38 28 19 15 16 22 14 9 10 9 16 20 23 24 25 28 33 33 30 31 29 26 23 17 12 8 6 7 10 13 17
83 70 72 80 67 48 39 56 43 40 40 41 38 41 21 20 18 22 21 17 12 10 10 10 15 19 19 24 27 28 36 36 30 30 29 23 18 15 12 9 7 10 14 17
68 66 64 76 52 37 41 35 50 63 44 46 45 42 19 25 25 25 19 14 5 15 19 23 17 23 21 25 27 28 32 29 35 31 27 25 22 19 16 12 9 12 15 19
51 68 60 58 48 60 39 46 23 20 37 52 59 47 39 28 26 21 18 12 9 5 13 22 22 10 17 22 26 24 27 32 30 28 25 22 22 20 17 13 13 17 22 18
39 57 53 62 63 48 42 36 38 37 40 51 43 29 19 16 15 21 17 13 12 14 18 25 27 27 16 13 18 24 26 31 29 27 26 24 23 22 18 18 18 21 21 19
26 26 56 47 56 64 54 44 30 24 42 42 21 14 5 10 18 25 28 16 17 13 14 23 29 30 25 15 13 16 23 26 29 27 26 24 22 22 22 20 21 21 22 21
47 42 41 45 56 51 46 44 37 50 43 34 21 12 12 12 14 22 16 12 11 17 22 26 28 27 20 14 7 13 19 25 23 19 18 18 20 23 25 23 25 23 25 32
53 44 43 40 40 44 52 47 43 26 18 15 17 15 15 18 26 24 29 31 33 37 38 28 33 33 24 16 11 11 14 16 14 14 15 24 37 53 68 31 28 27 35 45
50 47 62 37 33 37 30 11 12 12 12 14 19 24 21 22 32 33 36 45 57 63 52 48 36 35 31 24 14 12 9 6 6 10 13 22 45 59 84 46 27 32 40 46
47 35 40 34 36 26 21 15 17 17 19 20 22 32 30 35 42 51 57 53 52 65 68 44 32 30 27 13 7 3 4 9 6 14 23 26 27 36 44 24 25 34 31 35
46 36 32 43 33 29 23 20 20 23 29 36 38 38 41 44 49 48 52 57 56 55 52 46 33 24 17 9 5 7 10 13 15 19 20 25 27 17 23 33 30 26 28 29
35 38 32 45 27 16 23 20 22 24 29 36 40 46 49 48 53 52 50 56 50 49 44 37 25 15 9 9 9 15 16 12 12 16 32 36 31 25 22 28 31 32 31 31
Wind_Direction
239 205 179 203 220 211 217 135 155 162 226 342 117 101 133 129 133 139 137 139 142 145 148 145 145 148 149 147 144 147 142 141 137 135 133 132 137 142 155 163 158 146 100 68
226 181 199 219 232 225 219 201 164 258 153 288 135 134 140 133 147 142 139 138 137 134 139 144 139 137 143 144 142 144 142 133 131 128 122 104 104 113 107 114 97 92 80 69
214 233 227 230 218 224 223 206 175 176 226 283 257 306 155 158 154 154 155 149 144 145 146 146 145 141 143 144 142 141 135 126 125 120 103 95 80 71 62 74 70 68 55 52
243 237 233 227 216 242 221 242 194 199 172 173 161 173 178 173 170 169 165 166 159 154 155 156 153 150 151 150 145 140 132 126 123 113 100 90 78 65 47 56 65 60 49 45
240 238 237 239 211 252 214 267 190 157 171 182 177 319 186 167 177 185 185 181 175 167 167 166 164 158 158 151 149 142 138 131 122 111 99 74 47 37 43 51 56 44 45 39
243 243 245 233 225 247 233 273 287 287 259 189 189 190 302 182 191 191 185 185 180 182 173 171 169 164 164 160 155 149 148 142 118 94 72 62 48 41 42 48 46 37 22 22
244 241 242 245 243 244 260 272 274 269 251 278 200 206 211 192 201 197 187 181 182 182 179 174 172 167 173 176 174 169 167 166 144 114 81 58 44 41 47 40 34 28 28 32
242 243 240 244 249 254 259 260 267 269 270 275 279 276 211 223 201 194 185 183 178 172 176 183 183 179 174 175 177 177 178 176 168 154 124 71 53 42 33 36 30 29 27 26
245 247 245 248 250 256 260 258 267 268 278 282 279 281 289 300 197 178 177 175 180 179 177 178 179 180 182 182 184 185 183 182 177 171 156 125 69 34 29 30 28 20 18 20
248 252 246 245 254 256 250 260 260 259 257 268 280 291 304 289 181 181 177 180 182 182 180 181 182 183 184 186 187 188 190 189 186 183 180 167 81 37 32 30 21 15 17 17
242 249 242 252 252 253 249 249 253 259 265 269 280 287 309 222 185 181 184 184 178 179 182 183 185 187 191 192 193 197 198 195 195 195 193 200 199 79 37 24 14 11 13 15
237 247 243 246 255 264 252 246 253 254 260 277 277 285 304 193 174 172 176 177 174 184 188 186 186 186 191 195 198 205 207 207 208 210 207 218 226 234 304 356 7 9 12 8
236 238 243 249 255 263 238 245 250 260 267 265 271 290 302 288 184 171 169 172 164 163 176 185 184 190 198 200 201 203 209 214 221 221 221 225 238 235 253 313 349 1 1 2
235 237 239 243 252 264 235 240 244 251 255 263 271 284 272 248 205 204 170 152 146 149 158 178 190 198 202 201 203 204 205 207 213 214 214 214 228 233 267 307 332 346 353 356
234 240 238 246 252 260 250 240 245 256 253 255 270 276 245 225 212 191 166 165 160 168 177 186 198 207 214 210 211 211 212 212 211 214 217 217 222 230 257 292 310 328 338 343
230 242 235 242 251 258 256 246 243 257 261 263 271 273 220 204 193 182 187 197 186 228 275 244 227 241 232 222 216 212 213 215 215 220 226 238 244 246 251 270 286 314 324 334
231 235 233 238 245 254 255 259 249 260 272 278 271 268 234 239 222 211 198 193 213 306 306 306 292 281 254 236 232 224 216 218 219 222 224 231 236 252 242 256 289 310 318 329
244 230 235 234 238 245 258 247 276 296 282 277 277 273 252 227 214 228 214 226 264 305 318 325 338 312 265 250 240 239 228 224 226 232 230 232 229 244 244 259 285 308 322 322
256 230 238 236 237 249 254 269 258 269 292 292 292 296 260 215 253 253 242 249 274 293 311 324 339 339 322 249 228 223 223 225 229 230 229 233 234 233 252 273 287 302 314 320
274 259 237 242 237 245 256 269 272 284 290 307 311 307 239 232 251 268 273 272 293 294 308 326 334 344 340 319 276 234 224 223 224 225 231 227 228 246 262 266 284 299 313 316
257 260 254 241 244 258 274 272 272 270 275 301 326 315 294 285 294 301 307 305 296 300 305 315 325 329 333 332 302 250 228 224 229 234 228 230 262 248 258 272 297 307 322 335
251 254 256 261 258 259 284 274 266 277 306 322 320 302 304 312 302 317 318 313 312 306 302 304 310 315 325 325 308 270 244 272 278 292 305 320 318 304 280 279 303 316 324 327
252 257 245 272 264 273 287 291 309 306 322 335 328 308 334 320 303 306 303 303 305 303 314 312 302 315 321 323 329 325 319 303 313 301 301 332 332 303 302 301 318 316 322 325
259 271 258 253 257 274 291 302 317 336 337 317 326 333 332 322 316 306 301 306 308 310 308 317 307 304 314 323 358 38 14 315 360 321 324 332 327 305 321 350 342 328 330 332
257 260 260 261 264 272 291 304 296 300 315 302 319 324 322 320 320 322 315 310 318 316 318 314 308 306 316 325 347 38 12 339 325 325 339 335 330 318 319 327 338 340 341 343
269 251 261 259 259 280 287 313 335 338 333 330 323 321 328 327 318 315 306 312 314 323 327 328 330 328 344 354 353 346 349 356 339 329 332 334 319 318 325 332 339 351 354 358